| time (UTC) | temp C | wind direction | speed KPH | gust KPH | rain 1hr cm | rain 24hr cm | rain mn cm | humidity % | barometer mb |
| 20260507051625 | 11 | 160 | 0.0 | 6.4 | 0.00 | 0.00 | 0.00 | 81 | 1021.0 |
| 20260507050118 | 11 | 136 | 1.6 | 4.8 | 0.00 | 0.00 | 0.00 | 81 | 1021.1 |
| 20260507044623 | 11 | 202 | 0.0 | 6.4 | 0.00 | 0.00 | 0.00 | 81 | 1021.1 |
| 20260507043116 | 12 | 218 | 0.0 | 8.0 | 0.00 | 0.00 | 0.00 | 81 | 1021.0 |
| 20260507041627 | 12 | 247 | 0.0 | 1.6 | 0.00 | 0.00 | 0.00 | 81 | 1021.1 |
| 20260507040140 | 12 | 240 | 0.0 | 0.0 | 0.00 | 0.00 | 0.00 | 81 | 1020.9 |
| 20260507034626 | 12 | 264 | 0.0 | 0.0 | 0.00 | 0.00 | 0.00 | 80 | 1020.8 |
| 20260507033119 | 12 | 259 | 0.0 | 0.0 | 0.00 | 0.00 | 0.00 | 79 | 1020.7 |
| 20260507031628 | 12 | 259 | 0.0 | 0.0 | 0.00 | 0.00 | 0.00 | 78 | 1020.5 |
| 20260507030119 | 13 | 226 | 0.0 | 0.0 | 0.00 | 0.00 | 0.00 | 77 | 1020.4 |
| 20260507024626 | 13 | 275 | 0.0 | 6.4 | 0.00 | 0.00 | 0.00 | 76 | 1020.3 |
| 20260507023139 | 13 | 260 | 1.6 | 8.0 | 0.00 | 0.00 | 0.00 | 75 | 1020.3 |
| 20260507021621 | 13 | 281 | 1.6 | 8.0 | 0.00 | 0.00 | 0.00 | 75 | 1020.2 |
| 20260507020122 | 13 | 290 | 1.6 | 6.4 | 0.00 | 0.00 | 0.00 | 74 | 1020.3 |
| 20260507014632 | 14 | 196 | 0.0 | 8.0 | 0.00 | 0.00 | 0.00 | 72 | 1020.2 |
| 20260507013140 | 14 | 129 | 1.6 | 9.7 | 0.00 | 0.00 | 0.00 | 71 | 1020.2 |
| 20260507011658 | 15 | 208 | 0.0 | 11.3 | 0.00 | 0.00 | 0.00 | 68 | 1020.3 |
| 20260507010119 | 16 | 246 | 1.6 | 12.9 | 0.00 | 0.00 | 0.00 | 67 | 1020.2 |
| 20260507004625 | 15 | 243 | 1.6 | 9.7 | 0.00 | 0.00 | 0.00 | 70 | 1020.3 |
| 20260507003139 | 14 | 140 | 3.2 | 12.9 | 0.00 | 0.00 | 0.00 | 72 | 1020.2 |
| 20260507001629 | 14 | 249 | 1.6 | 8.0 | 0.00 | 0.00 | 0.00 | 72 | 1020.4 |
| 20260507000122 | 15 | 216 | 1.6 | 11.3 | 0.00 | 0.00 | 0.00 | 72 | 1020.3 |
| 20260506234650 | 15 | 238 | 1.6 | 11.3 | 0.00 | 0.00 | 0.00 | 70 | 1020.4 |
| 20260506233132 | 15 | 275 | 6.4 | 16.1 | 0.00 | 0.00 | 0.00 | 70 | 1020.3 |
| 20260506231629 | 15 | 167 | 3.2 | 9.7 | 0.00 | 0.00 | 0.00 | 69 | 1020.4 |
| 20260506230124 | 15 | 251 | 3.2 | 12.9 | 0.00 | 0.00 | 0.00 | 68 | 1020.4 |
| 20260506224634 | 15 | 239 | 4.8 | 14.5 | 0.00 | 0.00 | 0.00 | 69 | 1020.4 |
| 20260506223140 | 15 | 206 | 4.8 | 11.3 | 0.00 | 0.00 | 0.00 | 70 | 1020.5 |
| 20260506221614 | 15 | 227 | 3.2 | 8.0 | 0.00 | 0.00 | 0.00 | 71 | 1020.6 |
| 20260506220119 | 15 | 129 | 1.6 | 8.0 | 0.00 | 0.00 | 0.00 | 71 | 1020.7 |
| 20260506214625 | 14 | 195 | 0.0 | 11.3 | 0.00 | 0.00 | 0.00 | 72 | 1020.7 |
| 20260506213115 | 14 | 105 | 1.6 | 6.4 | 0.00 | 0.00 | 0.00 | 73 | 1020.7 |
| 20260506211618 | 13 | 253 | 1.6 | 11.3 | 0.00 | 0.00 | 0.00 | 75 | 1020.8 |
| 20260506210155 | 13 | 213 | 1.6 | 11.3 | 0.00 | 0.00 | 0.00 | 76 | 1020.8 |
| 20260506204632 | 13 | 272 | 1.6 | 11.3 | 0.00 | 0.00 | 0.00 | 76 | 1020.8 |
| 20260506203139 | 13 | 233 | 1.6 | 11.3 | 0.00 | 0.00 | 0.00 | 78 | 1020.7 |
| 20260506201631 | 13 | 249 | 1.6 | 8.0 | 0.00 | 0.00 | 0.00 | 78 | 1020.7 |
| 20260506200123 | 13 | 245 | 0.0 | 12.9 | 0.00 | 0.00 | 0.00 | 80 | 1020.6 |
| 20260506194627 | 13 | 266 | 1.6 | 8.0 | 0.00 | 0.00 | 0.00 | 82 | 1020.5 |
| 20260506193123 | 13 | 276 | 1.6 | 6.4 | 0.00 | 0.00 | 0.00 | 82 | 1020.5 |
| 20260506191631 | 12 | 122 | 1.6 | 14.5 | 0.00 | 0.00 | 0.00 | 83 | 1020.6 |
| 20260506190134 | 12 | 183 | 0.0 | 8.0 | 0.00 | 0.00 | 0.00 | 84 | 1020.5 |
| 20260506184629 | 12 | 162 | 0.0 | 6.4 | 0.00 | 0.00 | 0.00 | 85 | 1020.7 |
| 20260506183119 | 12 | 131 | 4.8 | 12.9 | 0.00 | 0.00 | 0.00 | 84 | 1020.3 |
| 20260506181626 | 12 | 111 | 3.2 | 14.5 | 0.00 | 0.00 | 0.00 | 85 | 1020.3 |
| 20260506180134 | 12 | 315 | 0.0 | 12.9 | 0.00 | 0.00 | 0.00 | 86 | 1020.4 |
| 20260506174618 | 11 | 174 | 3.2 | 6.4 | 0.00 | 0.00 | 0.00 | 86 | 1020.3 |
| 20260506173126 | 11 | 237 | 0.0 | 6.4 | 0.00 | 0.00 | 0.00 | 87 | 1020.4 |
| 20260506171654 | 11 | 144 | 1.6 | 6.4 | 0.00 | 0.00 | 0.00 | 87 | 1020.4 |
| 20260506170124 | 11 | 136 | 0.0 | 9.7 | 0.00 | 0.00 | 0.00 | 87 | 1020.4 |
| 20260506164651 | 11 | 236 | 0.0 | 8.0 | 0.00 | 0.00 | 0.00 | 88 | 1020.1 |
| 20260506163141 | 11 | 225 | 1.6 | 6.4 | 0.00 | 0.00 | 0.00 | 88 | 1020.0 |
| 20260506161628 | 11 | 165 | 0.0 | 6.4 | 0.00 | 0.00 | 0.00 | 88 | 1020.0 |
| 20260506160141 | 11 | 193 | 1.6 | 9.7 | 0.00 | 0.00 | 0.00 | 88 | 1020.1 |
| 20260506154632 | 11 | 233 | 0.0 | 4.8 | 0.00 | 0.00 | 0.00 | 89 | 1019.9 |
| 20260506153124 | 10 | 207 | 3.2 | 6.4 | 0.00 | 0.00 | 0.00 | 89 | 1019.8 |
| 20260506151634 | 10 | 163 | 0.0 | 8.0 | 0.00 | 0.00 | 0.00 | 89 | 1019.9 |
| 20260506150145 | 10 | 259 | 0.0 | 8.0 | 0.00 | 0.00 | 0.00 | 89 | 1020.0 |
| 20260506144628 | 10 | 147 | 0.0 | 3.2 | 0.00 | 0.00 | 0.00 | 89 | 1019.6 |
| 20260506143120 | 10 | 172 | 0.0 | 4.8 | 0.00 | 0.00 | 0.00 | 89 | 1019.4 |
| 20260506141629 | 10 | 188 | 0.0 | 1.6 | 0.00 | 0.00 | 0.00 | 90 | 1019.5 |
| 20260506140140 | 10 | 158 | 0.0 | 6.4 | 0.00 | 0.00 | 0.00 | 90 | 1019.4 |
| 20260506134623 | 10 | 221 | 0.0 | 4.8 | 0.00 | 0.00 | 0.00 | 90 | 1019.6 |
| 20260506133134 | 10 | 193 | 0.0 | 6.4 | 0.00 | 0.00 | 0.00 | 89 | 1019.4 |
| 20260506131630 | 10 | 172 | 0.0 | 9.7 | 0.00 | 0.00 | 0.00 | 89 | 1019.2 |
| 20260506130139 | 10 | 175 | 0.0 | 0.0 | 0.00 | 0.00 | 0.00 | 90 | 1019.1 |
| 20260506124624 | 10 | 176 | 0.0 | 0.0 | 0.00 | 0.00 | 0.00 | 90 | 1019.0 |
| 20260506123118 | 10 | 246 | 0.0 | 0.0 | 0.00 | 0.00 | 0.00 | 91 | 1018.9 |
| 20260506121624 | 10 | 169 | 0.0 | 0.0 | 0.00 | 0.00 | 0.00 | 91 | 1018.9 |
| 20260506120112 | 10 | 169 | 0.0 | 0.0 | 0.00 | 0.00 | 0.00 | 91 | 1018.6 |
| 20260506114622 | 10 | 160 | 0.0 | 0.0 | 0.00 | 0.00 | 0.00 | 90 | 1018.5 |
| 20260506113134 | 10 | 160 | 0.0 | 0.0 | 0.00 | 0.00 | 0.00 | 90 | 1018.7 |
| 20260506111615 | 10 | 203 | 0.0 | 0.0 | 0.00 | 0.00 | 0.00 | 90 | 1018.6 |
| 20260506110123 | 11 | 175 | 0.0 | 0.0 | 0.00 | 0.00 | 0.00 | 89 | 1018.5 |
| 20260506104632 | 11 | 212 | 0.0 | 0.0 | 0.00 | 0.00 | 0.00 | 88 | 1018.4 |
| 20260506103126 | 11 | 139 | 0.0 | 0.0 | 0.00 | 0.00 | 0.00 | 88 | 1018.2 |
| 20260506101632 | 11 | 257 | 0.0 | 0.0 | 0.00 | 0.00 | 0.00 | 88 | 1018.0 |
| 20260506100121 | 11 | 238 | 0.0 | 0.0 | 0.00 | 0.00 | 0.00 | 88 | 1017.7 |
| 20260506094630 | 11 | 304 | 0.0 | 0.0 | 0.00 | 0.00 | 0.00 | 88 | 1017.7 |
| 20260506093242 | 11 | 119 | 0.0 | 0.0 | 0.00 | 0.00 | 0.00 | 88 | 1017.5 |
| 20260506091640 | 11 | 232 | 0.0 | 4.8 | 0.00 | 0.00 | 0.00 | 88 | 1017.6 |
| 20260506090115 | 11 | 218 | 0.0 | 4.8 | 0.00 | 0.00 | 0.00 | 88 | 1017.5 |
| 20260506084639 | 11 | 189 | 0.0 | 0.0 | 0.00 | 0.00 | 0.00 | 89 | 1017.4 |
| 20260506083128 | 11 | 257 | 0.0 | 0.0 | 0.00 | 0.00 | 0.00 | 89 | 1017.4 |
| 20260506081618 | 11 | 257 | 0.0 | 0.0 | 0.00 | 0.00 | 0.00 | 90 | 1017.4 |
| 20260506080210 | 10 | 257 | 0.0 | 0.0 | 0.00 | 0.00 | 0.00 | 90 | 1017.4 |
| 20260506073123 | 10 | 257 | 0.0 | 0.0 | 0.00 | 0.00 | 0.00 | 89 | 1017.1 |
| 20260506071616 | 11 | 257 | 0.0 | 0.0 | 0.00 | 0.00 | 0.00 | 89 | 1016.9 |
| 20260506070127 | 11 | 257 | 0.0 | 0.0 | 0.00 | 0.00 | 0.00 | 89 | 1016.8 |
| 20260506061627 | 12 | 225 | 0.0 | 1.6 | 0.00 | 0.00 | 0.00 | 88 | 1016.3 |
| 20260506060140 | 12 | 224 | 0.0 | 0.0 | 0.00 | 0.00 | 0.00 | 87 | 1016.1 |